カタログに戻る

CO3D2

運用中科学SSO
NORAD 64902·PAYLOAD·🇫🇷 France

打ち上げ Jul 26, 2025 から Guiana Space Centre

Loading…

次のパス (今後24時間)

TLE

最新Source: Space-Track

元期: Sep 14, 2026, 13:00 UTC

1 64902U 25156D   26257.54178557  .00001456  00000-0  70378-4 0  9999
2 64902  97.4344 334.8490 0001513  99.8763 260.2643 15.20199322 63104

AllMySatでCO3D2をリアルタイム追跡

Download on the App Store